TYVAK-182A (48271 NORAD) Tracking and Keplerian Element Data

This shows tracking and keplerian element data for the satellite.

Feedback or suggestion? Click here.




ElementValue
Catalog48271
NameTYVAK-182A
Epoch Orbit1418
Epoch Day214.68866099
Epoch Year2021
RAAN288.3416
Inclination97.7841
Eccentricity0.0003536
Argument of Perigee92.5364
Mean Anonmoly267.6256
Mean Motion14.86130677
Decay Rate2.31E-06
L11 48271U 21034D 21214.68866099 .00000231 00000-0 32418-4 0 9992
L22 48271 97.7841 288.3416 0003536 92.5364 267.6256 14.86130677 14189

Live tracking and technical data element details for TYVAK-182A (NORAD 48271). TYVAK-182A can be tracked NOW for your location showing map with azimuth and elevation plus other details from your city location.

Track the satellite on the map from your city or location and see movement details for azimuth, elevation, latitude, longitude, range, height, and movement on the map or in text.







IsCatalogInMostPopularTable: catalog: 48271, numindb: 26
Update: records affected: 1



GetName: 48271 TYVAK-182A

Hit Count: updated at: Tue, 03 Aug 2021 19:25:04 GMT